Tracking 28081 objects as of 26-Sep-2023
HD Live streaming from Space Station
objects crossing your sky now

FLOCK 4X 35

Track FLOCK 4X 35 now!
10-day predictions


NORAD ID: 51048
Int'l Code: 2022-002BS
Perigee: 475.0 km
Apogee: 482.1 km
Inclination: 97.4 °
Period: 94.0 minutes
Semi major axis: 6849 km
RCS: Unknown
Launch date: January 13, 2022
Source: United States (US)
Launch site: AIR FORCE EASTERN TEST RANGE (AFETR)
Your satellite tracking list
Your tracking list is empty




NASA's NSSDC Master Catalog

Two Line Element Set (TLE):
1 51048U 22002BS  23268.76570978  .00023271  00000-0  76631-3 0  9995
2 51048  97.4241 336.8568 0005192 225.8454 134.2361 15.31479339 94214
Source of the keplerian elements: AFSPC